User: anonymous   Login
Location: Caltech
(34.1382°N, 118.1253°W)
Time: 08:10:14
(UTC-07:00)
Language:

KITSAT 1 - Orbit

View from above orbital plane
View from above orbital plane
View from above satellite
View from above satellite

Ground track
Ground track

The orbit data is extracted from the following two-line orbital elements,

1 22077U 92052B   14301.66185935 -.00000053  00000-0  33891-4 0  7409
2 22077 066.0840 182.6903 0001730 177.2256 213.5527 12.86496915 43579
Epoch (UTC): 28 October 2014 15:53:04
Eccentricity: 0.0001730
inclination: 66.0840°
perigee height: 1314 km
apogee height: 1317 km
right ascension of ascending node: 182.6903°
argument of perigee: 177.2256°
revolutions per day: 12.86496915
mean anomaly at epoch: 213.5527°
orbit number at epoch: 4357

The dashed part of the orbit path shows where the satellite is in the earth's shadow,  

DLR